SCP
0 0 0 0 0 0 0 0 0 0 0 0 0 0 0 0 0 0 0 0 0 0 0 0 0 0 0 0 0 0 0 0 0 0 0 0 0 0 0 0 0 0 0 0
0 0 0 0 0 0 0 0 0 0 0 0 0 0 0 0 0 0 0 0 0 0 0 0 0 0 0 0 0 0 0 0 0 0 0 0 0 0 0 0 0 0 0 0
0 0 0 0 0 0 0 0 0 0 0 0 0 0 0 0 0 0 0 0 0 0 0 0 0 0 0 0 0 0 0 0 0 0 0 0 0 0 0 0 0 0 0 0
0 0 0 0 0 0 0 0 0 0 0 0 0 0 0 0 0 0 0 0 0 0 0 0 0 0 0 0 0 0 0 0 0 0 0 0 0 0 0 0 0 0 0 0
0 0 0 0 0 0 0 0 0 0 0 0 0 0 0 0 0 0 0 0 0 0 0 0 0 0 0 0 0 0 0 0 0 0 0 0 0 0 0 0 0 0 0 0
0 0 0 0 0 0 0 0 0 0 0 0 0 0 0 0 0 0 0 0 0 0 0 0 0 0 0 0 0 0 0 0 0 0 0 0 0 0 0 0 0 0 0 0
0 0 0 0 0 0 0 0 0 0 0 0 0 0 0 0 0 0 0 0 0 0 0 0 0 0 0 0 0 0 0 0 0 0 0 0 0 0 0 0 0 0 0 0
0 0 0 0 0 0 0 0 0 0 0 0 0 0 0 0 0 0 0 0 0 0 0 0 0 0 0 0 0 0 0 0 0 0 0 0 0 0 0 0 0 0 0 0
0 0 0 0 0 0 0 0 0 0 0 0 0 0 0 0 0 0 0 0 0 0 0 0 0 0 0 0 0 0 0 0 0 0 0 0 0 0 0 0 0 0 0 0
0 0 0 0 0 0 0 0 0 0 0 0 0 0 0 0 0 0 0 0 0 0 0 0 0 0 0 0 0 0 0 0 0 0 0 0 0 0 0 0 0 0 0 0
0 0 0 0 0 0 0 0 0 0 0 0 0 0 0 0 0 0 0 0 0 0 0 0 0 0 0 0 0 0 0 0 0 0 0 0 0 0 0 0 0 0 0 0
0 0 0 0 0 0 0 0 0 0 0 0 0 0 0 0 0 0 0 0 0 0 0 0 0 0 0 0 0 0 0 0 0 0 0 0 0 0 0 0 0 0 0 0
0 0 0 0 0 0 0 0 0 0 0 0 0 0 0 0 0 0 0 0 0 0 0 0 0 0 0 0 0 0 0 0 0 0 0 0 0 0 0 0 0 0 0 0
0 0 0 0 0 0 0 0 0 0 0 0 0 0 0 0 0 0 0 0 0 0 0 0 0 0 0 0 0 0 0 0 0 0 0 0 0 0 0 0 0 0 0 0
0 0 0 0 0 0 0 0 0 0 0 0 0 0 0 0 0 0 0 0 0 0 0 0 0 0 0 0 0 0 0 0 0 0 0 0 0 0 0 0 0 0 0 0
0 0 0 0 0 0 0 0 0 0 0 0 0 0 0 0 0 0 0 0 0 0 0 0 0 0 0 0 0 0 0 0 0 0 0 0 0 0 0 0 0 0 0 0
0 0 0 0 0 0 0 0 0 0 0 0 0 0 0 0 0 0 0 0 0 0 0 0 0 0 0 0 0 0 0 0 0 0 0 0 0 0 0 0 0 0 0 0
-0 0 0 0 0 0 0 0 0 0 0 0 0 0 0 0 0 0 0 0 0 0 0 0 0 0 0 0 0 0 0 0 0 0 0 0 0 0 0 0 0 0 0 0
0 0 0 0 0 0 0 0 0 0 0 0 0 0 0 0 0 0 0 0 0 0 0 0 0 0 0 0 0 0 0 0 0 0 0 0 0 0 0 0 0 0 0 0
0 0 0 0 0 0 0 0 0 0 0 0 0 0 0 0 0 0 -0 0 0 0 0 0 0 0 0 0 0 0 0 0 0 0 0 0 0 0 0 0 0 0 0 0
0 0 0 0 0 0 0 0 0 0 0 0 0 0 0 0 -0 -0 -0 0 0 0 0 0 0 0 0 0 0 0 0 0 0 0 0 0 0 0 0 0 0 0 0 0
-0 -0 0 0 0 0 0 0 0 0 0 0 0 0 0 0 0 0 0 0 0 0 0 0 0 0 0 0 0 0 0 0 0 0 0 0 0 0 0 0 0 0 0 0
-0 -0 -0 0 0 0 0 0 0 0 0 0 0 0 0 0 0 0 0 0 0 0 0 0 0 0 0 0 0 0 0 0 0 0 0 0 0 0 0 0 0 0 0 0
0 0 0 0 0 0 0 0 -0 0 0 0 0 0 0 0 0 0 0 0 0 0 0 0 0 0 0 0 0 0 0 0 0 0 0 0 0 0 0 0 0 0 0 0
0 0 0 0 0 0 0 0 0 -0 0 0 0 0 0 0 0 0 0 0 0 0 0 0 0 0 0 0 0 0 0 0 0 0 0 0 0 0 0 0 0 0 0 0
0 0 0 0 0 0 0 0 0 0 0 0 0 0 0 0 0 0 0 0 0 0 0 0 0 0 0 0 0 0 0 0 0 0 0 0 0 0 0 0 0 0 0 0
0 0 0 0 0 0 0 0 0 0 0 0 0 0 0 0 0 0 0 0 0 0 0 0 0 0 0 0 0 0 0 0 0 0 0 0 0 0 0 0 0 0 0 0
Wind_Speed
8 8 5 6 7 4 4 5 6 7 6 7 7 7 7 6 5 5 5 5 5 4 3 3 2 1 1 2 1 1 1 2 3 3 2 2 2 2 2 2 3 3 3 3
6 6 5 7 7 6 6 6 7 7 7 6 7 6 6 6 5 5 5 5 5 5 4 4 3 3 2 2 2 2 2 2 2 2 2 2 2 2 2 2 2 2 3 3
6 6 4 5 4 4 3 3 3 5 7 7 8 7 6 5 5 5 5 5 5 5 4 4 4 3 3 3 2 2 2 3 2 2 2 3 2 2 2 2 2 2 3 3
4 3 4 3 2 3 2 3 3 4 7 7 8 7 4 4 5 6 6 6 6 5 5 5 4 3 3 3 2 2 3 3 3 3 3 2 2 2 3 2 2 2 2 2
2 3 5 4 6 6 4 3 6 8 10 10 9 6 4 7 7 7 6 6 5 5 5 4 4 3 3 3 2 2 3 3 3 3 3 2 3 3 2 2 2 2 2 2
2 3 3 4 9 9 2 2 8 10 10 11 9 6 6 9 9 8 7 6 5 5 5 4 4 3 2 2 3 3 4 3 3 2 3 3 3 2 2 2 2 1 1 1
3 4 3 5 10 7 3 6 10 9 9 8 6 6 8 9 8 7 7 7 6 5 4 4 4 2 2 3 4 4 3 2 2 2 2 2 2 1 1 1 1 1 1 0
1 2 4 7 6 4 4 7 8 9 8 8 9 9 9 8 8 8 7 7 6 6 6 5 3 2 2 3 3 2 2 2 2 2 1 1 1 1 1 2 2 1 1 0
2 3 3 3 3 4 5 7 8 9 10 9 9 10 10 9 8 8 7 7 6 6 6 5 4 2 2 3 2 1 1 2 1 1 0 0 1 1 1 1 1 1 1 1
3 4 5 4 4 7 8 8 9 9 10 9 9 10 9 9 8 8 7 7 6 6 6 5 5 4 3 3 2 1 1 1 1 0 0 1 0 1 1 1 1 1 1 1
4 5 6 4 7 9 9 9 10 10 9 9 9 9 9 8 8 7 7 7 6 5 5 5 5 5 4 2 1 1 1 1 1 0 1 1 1 0 1 1 2 2 2 2
4 5 6 8 9 10 10 11 11 11 11 10 9 9 9 8 7 6 7 6 6 6 6 5 5 5 4 3 1 0 1 1 1 0 1 1 1 2 3 2 3 2 2 2
5 7 7 8 8 9 9 10 10 10 10 10 9 8 8 7 6 6 6 6 6 6 5 4 5 5 4 3 2 1 1 1 1 1 1 1 1 2 2 4 6 6 5 4
5 6 6 7 9 10 10 11 10 9 9 8 8 8 7 7 6 6 6 6 6 5 4 4 4 4 3 3 2 2 1 1 1 1 1 1 1 2 2 3 3 3 4 5
6 6 7 8 9 9 9 9 10 9 9 9 8 7 7 7 6 6 6 6 5 5 5 5 5 5 4 3 2 2 1 1 1 1 2 2 2 2 3 3 3 2 2 3
8 7 7 7 9 9 10 10 9 10 9 9 8 8 7 6 5 5 6 5 5 5 5 5 5 6 5 4 3 2 2 3 2 2 2 2 2 3 3 3 3 2 2 2
6 7 9 10 10 10 10 9 9 9 9 8 8 8 7 6 5 6 6 6 5 5 5 5 6 6 5 4 3 2 2 2 4 3 3 3 2 2 2 2 2 2 2 3
5 6 7 8 8 10 10 9 9 9 8 8 8 6 6 5 5 6 6 6 6 6 6 6 7 6 5 4 3 2 2 2 2 2 2 2 2 2 2 2 2 2 2 3
6 6 7 7 7 8 8 9 9 8 8 7 6 5 5 4 4 5 4 5 5 6 7 7 9 7 6 5 4 3 3 3 3 3 2 3 3 3 2 2 2 2 2 2
6 7 7 7 7 7 7 8 8 7 7 6 5 5 5 5 4 4 4 3 4 4 5 6 6 5 5 5 5 2 3 3 3 2 2 2 2 2 2 2 2 2 2 2
7 7 7 7 8 8 7 7 7 7 6 5 5 5 5 5 4 3 3 4 5 6 6 7 5 4 4 4 4 3 3 3 2 2 2 2 2 2 2 2 2 2 2 2
6 6 7 7 7 7 7 7 7 7 6 5 5 5 5 5 5 4 3 3 4 7 5 4 4 5 6 5 3 3 3 3 2 2 2 1 1 1 1 1 1 1 1 1
5 6 6 6 7 7 7 6 6 6 5 5 5 5 4 4 3 3 4 4 4 7 5 4 6 7 7 4 3 3 3 2 2 2 2 1 1 1 1 1 1 1 1 1
5 5 6 6 6 6 7 7 6 5 5 4 4 4 4 3 3 2 3 6 8 8 4 5 8 8 7 3 3 2 2 2 2 2 1 1 1 1 1 1 1 1 1 1
5 5 5 5 5 5 5 6 6 5 5 4 5 5 3 2 3 4 4 4 7 7 4 5 8 8 5 3 3 2 2 2 2 1 1 1 1 1 1 1 1 1 1 1
4 4 4 4 4 4 4 4 4 4 5 5 5 4 4 3 3 3 3 4 5 6 5 3 4 5 3 2 2 2 2 2 3 2 2 2 2 1 1 1 2 2 2 2
4 3 3 3 4 4 4 4 4 4 4 4 5 5 4 4 4 4 4 4 4 4 4 3 3 3 3 2 2 2 2 2 2 2 2 2 1 1 2 2 2 2 2 2
Wind_Direction
261 276 278 284 296 297 254 245 243 266 271 302 316 315 324 336 351 359 355 352 345 337 325 319 313 305 290 279 278 263 260 257 251 250 241 225 216 217 218 220 227 221 221 229
279 272 279 293 301 288 276 274 269 280 288 317 315 325 338 343 346 341 338 336 332 326 323 311 302 301 296 286 274 253 243 259 260 243 229 223 223 217 220 232 236 224 219 219
276 294 304 289 294 282 297 309 283 276 288 317 327 325 323 326 329 323 323 325 325 318 308 304 299 291 281 272 278 259 256 261 259 238 223 226 226 218 222 232 230 227 224 217
276 320 253 245 354 329 298 347 352 327 325 323 312 308 315 342 337 328 328 323 321 320 311 305 302 300 296 284 269 258 258 258 252 233 228 223 220 227 233 230 227 232 230 223
259 262 269 326 343 332 292 306 6 343 332 332 332 335 338 349 341 326 321 317 310 309 306 306 308 305 306 295 279 271 265 258 250 233 226 222 226 231 234 219 228 235 227 218
250 258 271 314 320 317 290 306 355 349 339 339 345 341 318 331 332 331 330 329 326 323 321 314 309 311 294 290 289 280 277 271 262 242 225 223 230 234 229 200 210 214 217 212
246 249 266 320 327 350 42 316 333 338 334 335 329 301 306 320 326 326 325 327 328 323 317 309 305 300 278 287 282 283 291 290 280 255 232 223 225 231 202 176 166 177 176 191
296 270 276 340 2 16 314 316 325 328 328 323 315 315 321 323 325 328 328 329 329 323 316 316 313 292 278 276 283 297 300 293 286 272 252 207 172 189 159 149 147 155 134 120
225 242 285 344 335 326 328 319 322 323 322 319 316 318 321 321 322 324 326 327 328 322 317 323 327 310 276 287 290 301 314 294 280 274 278 185 159 154 138 143 147 153 155 163
279 287 312 329 339 339 332 323 320 319 318 318 315 316 319 319 321 323 325 326 327 328 324 325 329 330 309 305 313 330 340 318 296 146 59 45 63 138 151 164 162 157 164 156
284 303 322 333 342 334 329 328 327 327 326 324 320 319 319 316 317 318 321 325 325 324 321 324 333 338 334 333 348 1 351 345 4 56 112 82 57 73 156 185 180 170 177 170
279 305 303 300 316 326 326 326 325 324 324 323 319 313 315 313 315 319 321 326 328 330 330 332 337 338 337 340 341 18 4 350 359 56 80 97 95 56 44 67 81 92 114 123
278 294 288 294 310 322 319 317 317 316 314 314 315 313 313 313 316 322 322 324 324 325 330 337 339 338 341 346 350 6 29 2 359 48 75 86 103 109 86 58 59 65 70 78
308 312 305 312 312 317 317 316 314 314 313 312 312 314 314 317 321 325 325 326 328 335 341 343 342 342 346 353 359 8 20 22 43 58 62 69 81 94 101 99 79 52 50 61
319 315 297 301 309 317 320 322 324 324 324 324 325 326 325 323 322 324 332 339 348 358 357 354 351 347 351 1 10 17 28 35 49 63 65 68 76 83 86 86 82 70 57 48
315 315 316 319 323 326 329 330 327 324 326 326 326 326 325 324 328 337 344 350 358 356 356 358 354 350 355 6 15 22 34 34 45 67 75 79 78 79 79 79 74 65 53 35
322 325 326 326 325 324 324 322 319 318 319 320 319 320 327 336 345 349 348 352 357 356 1 3 356 354 5 14 23 28 38 46 50 63 69 73 76 76 75 76 73 64 50 40
302 302 308 310 313 317 319 321 321 320 317 313 318 328 336 342 343 343 343 352 1 5 6 2 359 -0 10 16 21 32 45 50 54 63 65 66 71 72 73 71 64 59 48 42
326 325 325 327 324 321 320 322 321 320 321 324 328 329 328 331 334 335 345 1 3 358 354 354 358 5 8 11 18 38 51 55 55 56 60 64 61 60 62 65 61 53 47 41
330 329 329 328 329 328 325 325 324 324 327 332 335 336 337 335 334 342 353 358 352 339 338 349 357 1 2 5 14 38 53 59 60 57 56 59 60 58 56 56 56 51 44 37
324 326 328 328 326 327 328 328 330 330 331 337 339 335 332 334 344 352 355 352 347 348 349 353 359 357 359 4 16 41 50 56 59 60 58 58 56 53 50 47 43 37 34 30
317 320 322 325 326 327 328 331 332 333 337 339 341 340 343 348 351 354 356 342 339 346 351 352 353 358 3 11 30 39 43 46 49 50 49 47 48 47 41 39 38 25 20 16
312 315 319 322 323 320 324 331 334 337 339 342 344 346 345 338 340 346 342 343 344 347 352 353 352 359 9 24 34 35 34 35 35 33 27 22 24 27 27 18 7 358 355 351
315 318 319 320 325 332 335 335 337 339 338 336 342 342 341 340 341 343 330 333 344 346 351 349 354 0 14 27 23 24 23 21 20 20 14 7 11 15 7 355 343 337 331 326
317 318 323 330 335 332 329 333 338 342 344 346 345 347 348 342 331 330 333 333 340 347 347 348 354 4 16 13 10 8 6 3 3 11 13 2 353 341 330 324 313 305 303 301
324 323 321 319 318 320 326 333 337 339 342 342 343 346 348 346 341 337 340 344 350 354 357 353 353 359 4 360 354 349 350 346 354 1 350 338 327 321 315 313 309 299 292 288
329 328 329 332 334 334 332 334 335 335 336 333 332 338 342 343 344 345 345 345 346 349 347 347 349 350 348 345 343 341 338 338 339 336 332 326 318 308 305 303 300 296 293 287